This is the latest recevied weather packets stored in our database for station/object OM4MO-10. If no packets are shown the sender has not sent any weather packets the latest 10 day(s).
| Time | Temp. | Humidity | Pressure | Rain* | Wind** | Luminosity | Snow |
|---|---|---|---|---|---|---|---|
| 1788488901 | 13.33° C | 79% | 1021.1 hPa | - | - | - | - |
| 1788488001 | 13.33° C | 79% | 1021 hPa | - | - | - | - |
| 1788487100 | 12.78° C | 79% | 1021.3 hPa | - | - | - | - |
| 1788486200 | 12.78° C | 79% | 1021.5 hPa | - | - | - | - |
| 1788485300 | 12.78° C | 79% | 1021.4 hPa | - | - | - | - |
| 1788484400 | 12.78° C | 79% | 1021.3 hPa | - | - | - | - |
| 1788483500 | 12.78° C | 79% | 1021.3 hPa | - | - | - | - |
| 1788482600 | 12.78° C | 79% | 1021.4 hPa | - | - | - | - |
| 1788481700 | 12.22° C | 79% | 1021.5 hPa | - | - | - | - |
| 1788480800 | 12.78° C | 79% | 1021.5 hPa | - | - | - | - |
| 1788479899 | 12.78° C | 79% | 1021.5 hPa | - | - | - | - |
| 1788478999 | 12.78° C | 79% | 1021.6 hPa | - | - | - | - |
| 1788478099 | 12.78° C | 79% | 1021.7 hPa | - | - | - | - |
| 1788477199 | 12.22° C | 79% | 1021.7 hPa | - | - | - | - |
| 1788476299 | 12.78° C | 79% | 1021.7 hPa | - | - | - | - |
| 1788475399 | 12.78° C | 79% | 1021.6 hPa | - | - | - | - |
| 1788474499 | 12.78° C | 79% | 1021.6 hPa | - | - | - | - |
| 1788473599 | 12.78° C | 79% | 1021.7 hPa | - | - | - | - |
| 1788472698 | 12.78° C | 79% | 1021.5 hPa | - | - | - | - |
| 1788471813 | 12.78° C | 79% | 1021.5 hPa | - | - | - | - |
| 1788470898 | 13.33° C | 79% | 1021.5 hPa | - | - | - | - |
| 1788469998 | 13.89° C | 79% | 1021.3 hPa | - | - | - | - |
| 1788469098 | 13.33° C | 79% | 1021.3 hPa | - | - | - | - |
| 1788468198 | 13.89° C | 79% | 1021.2 hPa | - | - | - | - |
| 1788467298 | 14.44° C | 79% | 1021.2 hPa | - | - | - | - |
* Rain since midnight (hover to see other rain measurements)
** Current wind speed in m/s (hover to see current wind gust speed)